Location: Miles
(41.4492°N, 81.6087°W)
Time: 21:27:06
(UTC+00:00)

Vanguard 2 Rocket - Pass Details

Date: 19 September 2024
Orbit: 553 x 3298 km, 32.9° (Epoch: 12 October)

Event Time Altitude Azimuth Distance (km) Brightness Sun altitude
Rises 11:22:50 0° 276° (W) 5,718 10.3 1.3°
Reaches altitude 10° 11:26:32 10° 268° (W) 5,049 10.0 2.0°
Maximum altitude 11:40:17 38° 209° (SSW) 4,100 10.1 4.6°
Drops below altitude 10° 11:57:28 10° 151° (SSE) 6,218 11.7 7.8°
Sets 12:02:46 0° 144° (SE) 7,130 12.1 8.8°
